Printer-friendly version

IAU Minor Planet Center

Minor Planet Center

MPEC 2008-J79 : 2008 JY30

The following Minor Planet Electronic Circular may be linked-to from your own Web pages, but must not otherwise be redistributed electronically.


Read MPEC 2008-J78 Read MPEC 2008-K01


M.P.E.C. 2008-J79                                Issued 2008 May 15, 23:17 UT

     The Minor Planet Electronic Circulars contain information on unusual
         minor planets and routine data on comets.  They are published
   on behalf of Commission 20 of the International Astronomical Union by the
          Minor Planet Center, Smithsonian Astrophysical Observatory,
                          Cambridge, MA 02138, U.S.A.

             Prepared using the Tamkin Foundation Computer Network

                              MPC@CFA.HARVARD.EDU
          URL http://www.cfa.harvard.edu/iau/mpc.html  ISSN 1523-6714

                                   2008 JY30

Observations:
     K08J30Y* C2008 05 14.63925 19 41 20.79 -57 31 08.2          18.3 V EJ079E12
     K08J30Y  C2008 05 14.65193 19 41 29.97 -57 31 49.4          18.4 V EJ079E12
     K08J30Y  C2008 05 14.66463 19 41 39.22 -57 32 30.3          18.2 V EJ079E12
     K08J30Y  C2008 05 14.71643 19 42 16.63 -57 35 16.1          18.2 V EJ079E12
     K08J30Y  C2008 05 14.71697 19 42 16.99 -57 35 17.7          18.3 V EJ079E12
     K08J30Y  C2008 05 14.71749 19 42 17.35 -57 35 19.5          18.6 V EJ079E12
     K08J30Y  C2008 05 14.74206 19 42 35.20 -57 36 37.5          18.5 V EJ079E12
     K08J30Y  C2008 05 14.75528 19 42 44.78 -57 37 19.2          18.5 V EJ079E12
     K08J30Y  C2008 05 14.76846 19 42 54.39 -57 38 00.9          18.4 V EJ079E12
     K08J30Y  C2008 05 14.78173 19 43 04.04 -57 38 42.5          18.5 V EJ079E12
     K08J30Y  C2008 05 15.62620 19 54 01.90 -58 22 31.6          18.4 V EJ079F85
     K08J30Y  C2008 05 15.63232 19 54 06.80 -58 22 50.3          18.3 V EJ079F85
     K08J30Y  C2008 05 15.63943 19 54 12.41 -58 23 11.8          18.3 V EJ079F85

Observer details:
E12 Siding Spring Survey.  Observer G. J. Garradd.  Measurers E. C. Beshore,
    A. Boattini, G. J. Garradd, A. R. Gibbs, A. D. Grauer, R. E. Hill,
    R. A. Kowalski, S. M. Larson, R. H. McNaught.  0.5-m Uppsala Schmidt + CCD.
F85 Tiki Observatory, Punaauia.  Observer N. Teamo.  0.41-m f/8.0
    Ritchey-Chretien + 3056x3056 CCD.

Orbital elements:
2008 JY30                                                Earth MOID = 0.1754 AU
Epoch 2008 May 14.0 TT = JDT 2454600.5                  MPC
M 342.05540              (2000.0)            P               Q
n   0.28265427     Peri.  344.77026     +0.98042770     +0.19644782
a   2.2994944      Node     3.97017     -0.15518115     +0.81181242
e   0.7497450      Incl.   10.84744     -0.12116244     +0.54988076
P   3.49           H   18.5           G   0.15           U   9
Residuals in seconds of arc
080514 E12  0.2-  0.1+    080514 E12  0.3-  0.0     080515 F85  0.0   0.1+
080514 E12  0.1-  0.1-    080514 E12  0.0   0.0     080515 F85  0.2+  0.1-
080514 E12  0.5+  0.1-    080514 E12  0.1-  0.1+    080515 F85  0.2-  0.0
080514 E12  0.1+  0.1+    080514 E12  0.1+  0.1-
080514 E12  0.2-  0.2+    080514 E12  0.0   0.1-

Ephemeris:
2008 JY30                a,e,i = 2.30, 0.75, 11                  q = 0.5755
Date    TT    R. A. (2000) Decl.     Delta      r     Elong.  Phase     V
2008 05 14    19 33.74   -56 57.1    0.354    1.229   120.5    45.1    18.4
2008 05 16    19 59.20   -58 41.1    0.332    1.204   118.3    47.7    18.3
2008 05 18    20 30.57   -60 14.1    0.310    1.179   115.5    50.8    18.2
2008 05 20    21 08.78   -61 23.2    0.291    1.154   112.1    54.3    18.1
2008 05 22    21 53.76   -61 50.7    0.274    1.128   108.2    58.5    18.1
2008 05 24    22 43.58   -61 16.7    0.260    1.103   103.5    63.2    18.0
2008 05 26    23 34.24   -59 25.9    0.248    1.077    98.3    68.5    18.0
2008 05 28    00 21.38   -56 15.0    0.240    1.052    92.5    74.3    18.1
2008 05 30    01 02.19   -51 54.1    0.235    1.026    86.3    80.5    18.2
2008 06 01    01 35.97   -46 42.7    0.234    1.000    79.9    86.7    18.4
2008 06 03    02 03.42   -41 02.8    0.237    0.974    73.6    92.9    18.6
2008 06 05    02 25.67   -35 15.0    0.243    0.949    67.5    98.8    18.9
2008 06 07    02 43.85   -29 35.2    0.253    0.923    61.9   104.1    19.2
2008 06 09    02 58.90   -24 14.1    0.266    0.898    56.9   108.8    19.5
2008 06 11    03 11.55   -19 17.3    0.282    0.873    52.4   112.8    19.8
2008 06 13    03 22.38   -14 47.0    0.300    0.847    48.6   116.0    20.1

Timothy B. Spahr             (C) Copyright 2008 MPC           M.P.E.C. 2008-J79

Read MPEC 2008-J78 Read MPEC 2008-K01


Our Web policy. Index to the CBAT/MPC/ICQ pages.


Valid HTML 4.01!